Tyler, TX

8:00 AM CDT on April 24, 2017 (GMT -0500)
Tyler Pounds

Weather History for KTYR - January, 2014

Change the Weather History Date:

Friday, January 24, 2014

  Actual Average Record
Temperature  
Mean Temperature 33 °F 47 °F  
Max Temperature 41 °F 56 °F 82 °F (1943)
Min Temperature 25 °F 37 °F 5 °F (1963)
Degree Days  
Heating Degree Days 32 18  
Month to date heating degree days 478 455  
Since 1 July heating degree days 1438 1356  
Cooling Degree Days 0 0  
Month to date cooling degree days 0 0  
Year to date cooling degree days 0 0  
Moisture  
Dew Point 5 °F    
Average Humidity 36    
Maximum Humidity 53    
Minimum Humidity 19    
Precipitation  
Precipitation 0.00 in 0.10 in 0.85 in (2002)
Month to date precipitation 0.70 2.35  
Year to date precipitation 0.70 2.35  
Snow  
Snow 0.00 in - - ()
Month to date snowfall 0.0  
Since 1 July snowfall T  
Snow Depth 0.00 in    
Sea Level Pressure  
Sea Level Pressure 30.55 in    
Wind  
Wind Speed 7 mph (WNW)    
Max Wind Speed 15 mph    
Max Gust Speed 21 mph    
Visibility 10 miles    
Events      
T = Trace of Precipitation, MM = Missing Value Source: NWS Daily Summary

Daily Weather History Graph

Daily Weather History Graph

Search for Another Location

Airport or City:

Trip Planner

Search our weather history database for the weather conditions in past years. The results will help you decide how hot, cold, wet, or windy it might be!

Date:

Astronomy

Jan. 24, 2014 Rise Set
Actual Time 7:20 AM CST 5:47 PM CST
Civil Twilight 6:54 AM CST 6:13 PM CST
Nautical Twilight 6:24 AM CST 6:43 PM CST
Astronomical Twilight 5:55 AM CST 7:12 PM CST
Moon 12:53 AM CST 12:03 PM CST
Length of Visible Light 11h 19m
Length of Day
10h 27m
Last Quarter, 44% of the Moon is Illuminated
Jan 24
Last Quarter
Jan 30
New
Feb 6
First Quarter
Feb 14
Full
Feb 22
Last Quarter

Hourly Weather History & Observations

Time (CST) Temp. Windchill Dew Point Humidity Pressure Visibility Wind Dir Wind Speed Gust Speed Precip Events Conditions
12:53 AM 30.0 °F 21.1 °F 3.9 °F 33% 30.72 in 10.0 mi North 10.4 mph - N/A   Overcast
1:53 AM 28.9 °F 20.4 °F 3.0 °F 33% 30.72 in 10.0 mi North 9.2 mph - N/A   Overcast
2:53 AM 28.0 °F 19.3 °F 3.0 °F 34% 30.71 in 10.0 mi North 9.2 mph - N/A   Overcast
3:53 AM 27.0 °F 17.3 °F 3.0 °F 36% 30.71 in 10.0 mi North 10.4 mph - N/A   Overcast
4:53 AM 27.0 °F 18.7 °F 3.0 °F 36% 30.71 in 10.0 mi NNW 8.1 mph - N/A   Overcast
5:53 AM 26.1 °F 16.8 °F 1.9 °F 35% 30.71 in 10.0 mi North 9.2 mph - N/A   Overcast
6:53 AM 25.0 °F 16.3 °F 3.0 °F 39% 30.71 in 10.0 mi North 8.1 mph - N/A   Overcast
7:53 AM 25.0 °F 17.1 °F 3.0 °F 39% 30.71 in 10.0 mi North 6.9 mph - N/A   Overcast
8:53 AM 26.1 °F 19.4 °F 3.9 °F 39% 30.70 in 10.0 mi NNW 5.8 mph - N/A   Scattered Clouds
9:53 AM 27.0 °F - 3.9 °F 37% 30.70 in 10.0 mi Calm Calm - N/A   Clear
10:53 AM 30.0 °F 25.2 °F 3.9 °F 33% 30.69 in 10.0 mi NW 4.6 mph - N/A   Clear
12:53 PM 37.9 °F 32.7 °F 1.0 °F 21% 30.57 in 10.0 mi NNW 6.9 mph - N/A   Clear
1:53 PM 39.0 °F 34.0 °F -0.0 °F 19% 30.52 in 10.0 mi WNW 6.9 mph - N/A   Clear
2:53 PM 39.9 °F 37.8 °F -0.0 °F 19% 30.48 in 10.0 mi Variable 3.5 mph - N/A   Clear
3:53 PM 39.9 °F 34.5 °F 3.0 °F 21% 30.45 in 10.0 mi WSW 8.1 mph - N/A   Clear
4:53 PM 39.9 °F 35.8 °F 3.0 °F 21% 30.43 in 10.0 mi WSW 5.8 mph - N/A   Clear
5:53 PM 37.0 °F 33.3 °F 5.0 °F 26% 30.41 in 10.0 mi WSW 4.6 mph - N/A   Clear
6:53 PM 33.1 °F 28.7 °F 8.1 °F 35% 30.38 in 10.0 mi SSW 4.6 mph - N/A   Clear
7:53 PM 33.1 °F 30.0 °F 6.1 °F 32% 30.36 in 10.0 mi SW 3.5 mph - N/A   Clear
8:53 PM 33.1 °F 26.1 °F 8.1 °F 35% 30.34 in 10.0 mi SSW 8.1 mph - N/A   Clear
9:53 PM 33.1 °F 23.9 °F 12.9 °F 43% 30.34 in 10.0 mi SW 12.7 mph - N/A   Clear
10:53 PM 30.9 °F 21.7 °F 16.0 °F 54% 30.33 in 10.0 mi SW 11.5 mph 20.7 mph N/A   Clear
11:53 PM 30.0 °F 20.5 °F 16.0 °F 56% 30.28 in 10.0 mi SW 11.5 mph - N/A   Clear